[Iaude] MPEC B45: 2024 BV [a=1.80,e=0.64,i=7.0,H=27.4]
    mpec at marsden.cfa.harvard.edu 
    mpec at marsden.cfa.harvard.edu
       
    Fri Jan 19 09:01:48 EST 2024
    
    
  
M.P.E.C. 2024-B45                              Issued 2024 January 19, 13:59 UT
     The Minor Planet Electronic Circulars contain information on unusual
         minor planets, routine data on comets and natural satellites,
         and occasional editorial announcements.  They are published
    on behalf of Division F of the International Astronomical Union by the
          Minor Planet Center, Smithsonian Astrophysical Observatory,
                          Cambridge, MA 02138, U.S.A.
			  
             Prepared using the Tamkin Foundation Computer Network
                              MPC at CFA.HARVARD.EDU
            URL https://www.minorplanetcenter.net/    ISSN 1523-6714
                                    2024 BV                                     
Observations:
     K24B00V* C2024 01 16.32316108 26 53.545+57 08 47.18         21.63GVEB045V00
     K24B00V  C2024 01 16.32927308 26 48.044+57 06 19.98               VEB045V00
     K24B00V  C2024 01 16.33538908 26 42.450+57 03 49.21         21.61GVEB045V00
     K24B00V  C2024 01 16.34150008 26 36.960+57 01 19.09         21.33GVEB045V00
     K24B00V KC2024 01 16.40524 08 25 41.28 +56 35 30.9          21.2 RVEB045291
     K24B00V KC2024 01 16.41044 08 25 36.92 +56 33 26.1                VEB045291
     K24B00V KC2024 01 16.41571 08 25 32.57 +56 31 20.4          21.5 RVEB045291
     K24B00V KC2024 01 16.46981 08 24 49.34 +56 09 50.8          21.2 RVEB045291
     K24B00V KC2024 01 16.47465 08 24 45.70 +56 07 56.6          21.5 RVEB045291
     K24B00V KC2024 01 16.47959 08 24 41.96 +56 06 00.2          21.4 RVEB045291
     K24B00V KC2024 01 17.23122208 18 57.336+52 08 30.41         21.3 GVEB045H01
     K24B00V  C2024 01 17.23503408 18 55.532+52 07 31.75         21.1 GVEB045H01
     K24B00V  C2024 01 17.24706508 18 49.833+52 04 26.73         21.7 GVEB045H01
     K24B00V  C2024 01 17.25413808 18 46.480+52 02 38.43         21.5 GVEB045H01
     K24B00V mC2024 01 19.34976808 10 55.823+45 50 02.58         22.56GVEB045V00
     K24B00V mC2024 01 19.35252108 10 55.240+45 49 42.38         22.40GVEB045V00
     K24B00V mC2024 01 19.35527308 10 54.721+45 49 22.04         23.12GVEB045V00
     K24B00V mC2024 01 19.35802808 10 54.167+45 49 01.70         22.22GVEB045V00
Observer details:
291 LPL/Spacewatch II.  Observer T. H. Bressi.  1.8-m f/2.7 reflector + CCD.
H01 Magdalena Ridge Observatory, Socorro.  Observers W. H. Ryan, E. V. Ryan.
    Measurer W. H. Ryan.  2.4-m f/8.9 Ritchey-Chretien + CCD.
V00 Kitt Peak-Bok.  Observer R. A. Mastaler.  Measurers M. J. Brucker, C. E.
    Woodward, D. Fay, J. B. Fazekas, D. C. Fuls, A. R. Gibbs, H. Groeller, J.
    K. Hogan, R. A. Kowalski, S. M. Larson, C. Lejoly, G. J. Leonard, R. A.
    Mastaler, R. S. McMillan, D. Rankin, R. L. Seaman, A. Serrano, F. C.
    Shelly, K. W. Wierzchos.  2.25-m reflector + 4x4K mosaic CCD.
Orbital elements:
2024 BV                                                  Earth MOID = 0.0146 AU
Epoch 2023 Sept. 13.0 TT = JDT 2460200.5                MPC                     
M 329.02599              (2000.0)            P               Q                  
n   0.40661053     Peri.  285.28160     +0.85166986     -0.51060253             
a   1.8044726      Node   105.55004     +0.51546755     +0.77545950             
e   0.6363738      Incl.    7.04040     +0.09461319     +0.37141301             
P   2.42           H   27.43          G   0.15           U   8                  
Residuals in seconds of arc
240116 V00 (0.9-  2.2-)   240116 291  1.4+  0.3-    240117 H01  0.0   0.1-
240116 V00  0.0   0.7+    240116 291  0.1-  1.0-    240117 H01  0.0   0.2+
240116 V00  0.2-  0.1-    240116 291  0.1+  0.9-    240119 V00  0.2+  0.1+
240116 V00  0.3+  0.6-    240116 291  0.2-  0.9-    240119 V00  0.2-  0.1+
240116 291  1.0+  1.5-    240117 H01  0.0   0.0     240119 V00  0.1+  0.0
240116 291  1.1+  1.2-    240117 H01  0.0   0.0     240119 V00  0.1-  0.1-
Ephemeris:
2024 BV                  a,e,i = 1.80, 0.64, 7                   q = 0.6562
Date    TT    R. A. (2000) Decl.     Delta      r    Elong.  Phase     V
2023 12 20    19 48 57.7 -30 02 58   0.2763  0.7497    27.5   142.7    31.2
...
2024 01 04    19 53 31.9 -25 29 45   0.1011  0.8853    13.5   165.0
...
2024 01 12    19 32 58.1 +12 12 32   0.01994 0.9670    34.0   145.3    26.5
...
2024 01 18    08 14 57.2 +49 15 05   0.05231 1.0300   151.3    27.3    22.3
2024 01 19    08 11 46.9 +46 34 15   0.06269 1.0405   153.9    24.6    22.6
2024 01 20    08 09 42.0 +44 38 11   0.07320 1.0511   155.7    22.7    22.9
...
2024 01 26    08 04 45.9 +39 06 30   0.1379  1.1144   159.1    18.3    24.3
...
2024 02 03    08 03 43.4 +36 16 49   0.2283  1.1984   156.5    19.1    25.6
...
2024 02 18    08 07 50.8 +33 25 36   0.4139  1.3518   146.2    24.0    27.3
A. U. Tomatic                (C) Copyright 2024 MPC           M.P.E.C. 2024-B45
    
    
More information about the Iaude
mailing list